Norman, OK

11:39 PM CDT on May 26, 2018 (GMT -0500)
Univ. Of Oklahoma Westheimer

Weather History for KOUN - October, 2012

Change the Weather History Date:

Sunday, October 21, 2012

  Actual Average Record
Temperature  
Mean Temperature 76 °F -  
Max Temperature 86 °F 72 °F 89 °F (2003)
Min Temperature 66 °F 49 °F 39 °F (1960)
Cooling Degree Days 11    
Growing Degree Days 26 (Base 50)    
Moisture  
Dew Point 68 °F    
Average Humidity 78    
Maximum Humidity 100    
Minimum Humidity 58    
Precipitation  
Precipitation 0.00 in - - ()
Sea Level Pressure  
Sea Level Pressure 29.76 in    
Wind  
Wind Speed 15 mph (South)    
Max Wind Speed 24 mph    
Max Gust Speed 31 mph    
Visibility 10 miles    
Events      
Averages and records for this station are not official NWS values.
T = Trace of Precipitation, MM = Missing Value Source: NWS Daily Summary

Daily Weather History Graph

Daily Weather History Graph

Search for Another Location

Airport or City:

Astronomy

Oct. 21, 2012 Rise Set
Actual Time 7:41 AM CDT 6:46 PM CDT
Civil Twilight 7:15 AM CDT 7:12 PM CDT
Nautical Twilight 6:46 AM CDT 7:42 PM CDT
Astronomical Twilight 6:16 AM CDT 8:11 PM CDT
Moon 1:59 PM CDT (10/21) No Moon Set
Length of Visible Light 11h 56m
Length of Day
11h 04m
Waxing Crescent, 45% of the Moon is Illuminated
Oct 21
Waxing Crescent
Oct 21
First Quarter
Oct 29
Full
Nov 6
Last Quarter
Nov 13
New

Hourly Weather History & Observations

Time (CDT) Temp. Heat Index Dew Point Humidity Pressure Visibility Wind Dir Wind Speed Gust Speed Precip Events Conditions
12:15 AM 69.8 °F - 64.4 °F 83% 29.73 in 10.0 mi SSE 12.7 mph - N/A   Clear
12:55 AM 68.0 °F - 64.4 °F 88% 29.73 in 10.0 mi SSE 12.7 mph - N/A   Clear
1:15 AM 68.0 °F - 64.4 °F 88% 29.73 in 10.0 mi SSE 11.5 mph - N/A   Clear
1:35 AM 68.0 °F - 64.4 °F 88% 29.74 in 10.0 mi South 12.7 mph - N/A   Clear
1:55 AM 68.0 °F - 64.4 °F 88% 29.73 in 10.0 mi South 12.7 mph - N/A   Clear
2:15 AM 68.0 °F - 64.4 °F 88% 29.73 in 10.0 mi South 13.8 mph - N/A   Clear
2:35 AM 68.0 °F - 64.4 °F 88% 29.73 in 10.0 mi SSE 12.7 mph - N/A   Clear
2:55 AM 68.0 °F - 64.4 °F 88% 29.74 in 10.0 mi SSE 12.7 mph - N/A   Clear
3:15 AM 68.0 °F - 64.4 °F 88% 29.74 in 10.0 mi South 11.5 mph - N/A   Clear
3:35 AM 68.0 °F - 64.4 °F 88% 29.74 in 10.0 mi SSE 11.5 mph - N/A   Clear
3:55 AM 66.2 °F - 64.4 °F 94% 29.73 in 10.0 mi SSE 11.5 mph - N/A   Clear
4:35 AM 66.2 °F - 64.4 °F 94% 29.74 in 10.0 mi South 12.7 mph - N/A   Clear
4:55 AM 66.2 °F - 64.4 °F 94% 29.74 in 10.0 mi South 10.4 mph - N/A   Clear
5:15 AM 66.2 °F - 64.4 °F 94% 29.74 in 10.0 mi South 10.4 mph - N/A   Clear
5:35 AM 66.2 °F - 66.2 °F 100% 29.75 in 10.0 mi South 9.2 mph - N/A   Clear
5:55 AM 68.0 °F - 66.2 °F 94% 29.75 in 10.0 mi South 12.7 mph - N/A   Clear
6:15 AM 66.2 °F - 66.2 °F 100% 29.75 in 10.0 mi South 10.4 mph - N/A   Clear
6:35 AM 66.2 °F - 66.2 °F 100% 29.75 in 10.0 mi South 11.5 mph - N/A   Clear
6:55 AM 66.2 °F - 66.2 °F 100% 29.76 in 10.0 mi South 15.0 mph 18.4 mph N/A   Clear
7:15 AM 68.0 °F - 66.2 °F 94% 29.76 in 10.0 mi South 16.1 mph - N/A   Clear
7:55 AM 66.2 °F - 66.2 °F 100% 29.77 in 7.0 mi South 15.0 mph - N/A   Clear
8:15 AM 68.0 °F - 68.0 °F 100% 29.78 in 7.0 mi South 13.8 mph - N/A   Clear
8:55 AM 69.8 °F - 68.0 °F 94% 29.79 in 7.0 mi South 18.4 mph 21.9 mph N/A   Scattered Clouds
9:15 AM 69.8 °F - 69.8 °F 100% 29.79 in 7.0 mi South 18.4 mph 24.2 mph N/A   Scattered Clouds
9:35 AM 71.6 °F - 69.8 °F 94% 29.80 in 10.0 mi South 18.4 mph - N/A   Mostly Cloudy
9:55 AM 73.4 °F - 69.8 °F 88% 29.80 in 10.0 mi South 21.9 mph 25.3 mph N/A   Mostly Cloudy
10:15 AM 73.4 °F - 69.8 °F 88% 29.80 in 10.0 mi South 17.3 mph 28.8 mph N/A   Scattered Clouds
10:35 AM 77.0 °F - 69.8 °F 78% 29.80 in 10.0 mi South 19.6 mph 25.3 mph N/A   Scattered Clouds
11:15 AM 78.8 °F - 69.8 °F 74% 29.80 in 10.0 mi South 24.2 mph - N/A   Scattered Clouds
11:35 AM 78.8 °F - 69.8 °F 74% 29.80 in 10.0 mi South 20.7 mph 29.9 mph N/A   Scattered Clouds
11:55 AM 80.6 °F 83.9 °F 69.8 °F 70% 29.80 in 10.0 mi South 21.9 mph 28.8 mph N/A   Scattered Clouds
12:15 PM 80.6 °F 83.9 °F 69.8 °F 70% 29.80 in 10.0 mi South 18.4 mph 28.8 mph N/A   Clear
12:35 PM 82.4 °F 86.3 °F 69.8 °F 66% 29.79 in 10.0 mi South 20.7 mph 28.8 mph N/A   Scattered Clouds
12:55 PM 82.4 °F 86.3 °F 69.8 °F 66% 29.79 in 10.0 mi South 19.6 mph 29.9 mph N/A   Clear
1:15 PM 84.2 °F 88.4 °F 69.8 °F 62% 29.78 in 10.0 mi South 23.0 mph 28.8 mph N/A   Clear
1:35 PM 84.2 °F 88.4 °F 69.8 °F 62% 29.77 in 10.0 mi South 21.9 mph - N/A   Clear
1:55 PM 86.0 °F 90.4 °F 69.8 °F 58% 29.76 in 10.0 mi South 18.4 mph 27.6 mph N/A   Clear
2:35 PM 86.0 °F 90.4 °F 69.8 °F 58% 29.74 in 10.0 mi South 18.4 mph 26.5 mph N/A   Clear
2:55 PM 86.0 °F 90.4 °F 69.8 °F 58% 29.74 in 10.0 mi South 20.7 mph 26.5 mph N/A   Clear
3:15 PM 86.0 °F 90.4 °F 69.8 °F 58% 29.74 in 10.0 mi South 18.4 mph 24.2 mph N/A   Clear
3:35 PM 86.0 °F 90.4 °F 69.8 °F 58% 29.73 in 10.0 mi South 20.7 mph 25.3 mph N/A   Clear
3:55 PM 86.0 °F 90.4 °F 69.8 °F 58% 29.73 in 10.0 mi South 20.7 mph 28.8 mph N/A   Clear
4:15 PM 86.0 °F 90.4 °F 69.8 °F 58% 29.73 in 10.0 mi South 23.0 mph 28.8 mph N/A   Clear
4:35 PM 86.0 °F 90.4 °F 69.8 °F 58% 29.73 in 10.0 mi South 20.7 mph 31.1 mph N/A   Clear
4:55 PM 86.0 °F 90.4 °F 69.8 °F 58% 29.73 in 10.0 mi South 19.6 mph 29.9 mph N/A   Clear
5:15 PM 86.0 °F 90.4 °F 69.8 °F 58% 29.73 in 10.0 mi South 21.9 mph 29.9 mph N/A   Clear
5:35 PM 86.0 °F 90.4 °F 69.8 °F 58% 29.73 in 10.0 mi South 20.7 mph 29.9 mph N/A   Clear
5:55 PM 84.2 °F 87.3 °F 68.0 °F 58% 29.74 in 10.0 mi South 19.6 mph 27.6 mph N/A   Clear
6:15 PM 82.4 °F 85.4 °F 68.0 °F 62% 29.75 in 10.0 mi South 18.4 mph 27.6 mph N/A   Clear
6:35 PM 80.6 °F 83.2 °F 68.0 °F 65% 29.75 in 10.0 mi SSE 18.4 mph 21.9 mph N/A   Clear
6:55 PM 80.6 °F 83.2 °F 68.0 °F 65% 29.75 in 10.0 mi SSE 18.4 mph 24.2 mph N/A   Clear
7:15 PM 78.8 °F - 68.0 °F 69% 29.76 in 10.0 mi SSE 18.4 mph 23.0 mph N/A   Clear
8:15 PM 78.8 °F - 68.0 °F 69% 29.78 in 10.0 mi SSE 13.8 mph 18.4 mph N/A   Clear
8:35 PM 77.0 °F - 68.0 °F 74% 29.78 in 10.0 mi SSE 16.1 mph - N/A   Clear
8:55 PM 77.0 °F - 68.0 °F 74% 29.78 in 10.0 mi SSE 17.3 mph 21.9 mph N/A   Clear
9:15 PM 77.0 °F - 69.8 °F 78% 29.78 in 10.0 mi SSE 16.1 mph 21.9 mph N/A   Clear
9:35 PM 77.0 °F - 69.8 °F 78% 29.79 in 10.0 mi SSE 15.0 mph 20.7 mph N/A   Clear
9:55 PM 77.0 °F - 68.0 °F 74% 29.79 in 10.0 mi SSE 15.0 mph 23.0 mph N/A   Clear
10:15 PM 77.0 °F - 68.0 °F 74% 29.79 in 10.0 mi SSE 15.0 mph 20.7 mph N/A   Clear
10:35 PM 77.0 °F - 68.0 °F 74% 29.80 in 10.0 mi SSE 15.0 mph 24.2 mph N/A   Clear
10:55 PM 77.0 °F - 68.0 °F 74% 29.80 in 10.0 mi SSE 15.0 mph 23.0 mph N/A   Clear
11:15 PM 77.0 °F - 68.0 °F 74% 29.81 in 10.0 mi SSE 17.3 mph 23.0 mph N/A   Clear
11:35 PM 75.2 °F - 68.0 °F 78% 29.81 in 10.0 mi SSE 13.8 mph 19.6 mph N/A   Clear
11:55 PM 75.2 °F - 68.0 °F 78% 29.81 in 10.0 mi SSE 16.1 mph - N/A   Clear